Regional Weather Roundup
Issued by NWS

Home | Current Version | Previous Version | Text Only | Print | Product List | Glossary On
Versions: 1 2 3 4 5 6 7 8 9 10 11 12 13 14 15 16 17 18 19 20 21 22 23 24 25 26 27 28 29 30 31 32 33 34 35 36 37 38 39 40 41 42 43 44 45 46 47 48 49 50
000
ASUS43 KLMK 030710
RWRKY
KENTUCKY REGIONAL WEATHER ROUNDUP
NATIONAL WEATHER SERVICE LOUISVILLE KY
200 AM EST TUE MAR 03 2015

NOTE "FAIR" INDICATES FEW OR NO CLOUDS BELOW 12,000 FEET
WITH NO SIGNIFICANT WEATHER AND/OR OBSTRUCTIONS TO VISIBILITY.

KYZ001>023-026-027-061>063-070>075-030800-
WESTERN AND SOUTH CENTRAL KENTUCKY

CITY           SKY/WX    TMP DP  RH WIND       PRES   REMARKS
PADUCAH        CLOUDY    36  26  67 E3        30.18F
HENDERSON      CLOUDY    34  21  60 E6        30.21F WCI  29
OWENSBORO      CLOUDY    35  24  64 SE5       30.23F WCI  31
HOPKINSVILLE   CLOUDY    39  28  64 E3        30.19F
BOWLING GREEN  CLOUDY    37  24  59 E3        30.21F
GLASGOW        CLOUDY    35  26  69 E3        30.21R
$$

KYZ024-025-028>034-038-045-046-053-030800-
NORTH CENTRAL KENTUCKY

CITY           SKY/WX    TMP DP  RH WIND       PRES   REMARKS
LOUISVILLE/SDF CLOUDY    32  19  58 NE3       30.25F
LOUISVILLE/LOU MOCLDY    31  18  58 CALM      30.26S
FORT KNOX      CLOUDY    31  20  62 E8        30.19F WCI  24
$$

KYZ035>037-039>044-047>052-055>060-089>105-030800-
NORTHEAST KENTUCKY

CITY           SKY/WX    TMP DP  RH WIND       PRES   REMARKS
LEXINGTON      PTCLDY    28  19  69 E9        30.21F WCI  19
COVINGTON      CLOUDY    27  14  58 E6        30.26R WCI  20
FRANKFORT      PTCLDY    27  18  69 E5        30.22F WCI  22
$$

KYZ054-064>069-076>088-106>120-030800-
SOUTHEAST KENTUCKY

CITY           SKY/WX    TMP DP  RH WIND       PRES   REMARKS
JACKSON        CLEAR     30  18  60 NE3       30.20F
LONDON         PTCLDY    33  20  58 N3        30.20F
SOMERSET       MOCLDY    32  23  69 CALM      30.21F
MIDDLESBORO    MOCLDY    36  32  86 W3        30.23F
MONTICELLO     MOSUNNY   35  27  73 CALM      30.23F
$$




USA.gov is the U.S. government's official web portal to all federal, state and local government web resources and services.